Notices

What's New in latest Release from April 7th, 2021:

- Updated Glossary, including Speed of Maximum Gust, and Total Hourly Precipitation

- Updated national and regional climate services offices contacts and prices information

- Addition of station inventory lists for 1981-2010, 1971-2000, and 1961-1990 Normals.

If you haven't already, please take our survey and provide feedback about our website: https://eccc.sondage-survey.ca/f/LanguageSelection.aspx?s=442ca660-fcf1-47c0-95a9-59707d6fd709

Hourly Data Report for October 22, 2003

TORONTO CITY
ONTARIO

43°40'00.000" N
79°24'00.000" W
112.50 m
6158355
71508
XTO

Download Data

Hourly Data (October 2003)
Hourly Data Report for October 22, 2003
TIME
LST
Temp Definition
°C
Dew Point Definition
°C
Rel Hum Definition
%
Precip. Amount Definition
mm

Wind Dir Definition
10's deg

Wind Spd Definition
km/h
Visibility Definition
km
Stn Press Definition
kPa
Hmdx Definition


Wind Chill Definition


Weather Definition


00:00 5.1 2.8 85   LegendMM LegendMM LegendMM 99.17     LegendNANA
01:00 4.9 2.7 86   LegendMM LegendMM LegendMM 99.19     LegendNANA
02:00 4.7 2.6 86   LegendMM LegendMM LegendMM 99.19     LegendNANA
03:00 4.2 2.2 87   LegendMM LegendMM LegendMM 99.20     LegendNANA
04:00 3.4 1.9 90   LegendMM LegendMM LegendMM 99.23     LegendNANA
05:00 3.5 1.9 89   LegendMM LegendMM LegendMM 99.27     LegendNANA
06:00 3.4 1.9 90   LegendMM LegendMM LegendMM 99.32     LegendNANA
07:00 3.7 1.8 87   LegendMM LegendMM LegendMM 99.37     LegendNANA
08:00 3.5 -0.6 74   LegendMM LegendMM LegendMM 99.45     LegendNANA
09:00 4.0 -0.5 72   LegendMM LegendMM LegendMM 99.48     LegendNANA
10:00 4.3 -1.6 65   LegendMM LegendMM LegendMM 99.45     LegendNANA
11:00 5.1 -2.0 60   LegendMM LegendMM LegendMM 99.43     LegendNANA
12:00 5.1 -2.7 57   LegendMM LegendMM LegendMM 99.41     LegendNANA
13:00 6.2 -1.8 56   LegendMM LegendMM LegendMM 99.40     LegendNANA
14:00 4.4 -3.0 59   LegendMM LegendMM LegendMM 99.40     LegendNANA
15:00 4.5 -3.5 56   LegendMM LegendMM LegendMM 99.41     LegendNANA
16:00 4.4 -3.7 56   LegendMM LegendMM LegendMM 99.44     LegendNANA
17:00 4.1 -4.0 56   LegendMM LegendMM LegendMM 99.50     LegendNANA
18:00 3.9 -4.4 55   LegendMM LegendMM LegendMM 99.54     LegendNANA
19:00 3.8 -3.9 57   LegendMM LegendMM LegendMM 99.56     LegendNANA
20:00 3.5 -4.3 57   LegendMM LegendMM LegendMM 99.57     LegendNANA
21:00 3.4 -4.7 55   LegendMM LegendMM LegendMM 99.57     LegendNANA
22:00 3.4 -4.6 56   LegendMM LegendMM LegendMM 99.58     LegendNANA
23:00 3.3 -4.9 55   LegendMM LegendMM LegendMM 99.56     LegendNANA

Notes on Data Quality.

Legend

  • E = Estimated
  • M = Missing
  • NA = Not Available*
  • [empty] = Indicates an unobserved value
Date modified: